Regional Weather Roundup
Issued by NWS Cleveland, OH

Home | Current Version | Previous Version | Graphics & Text | Print | Product List | Glossary On
Versions: 1 2 3 4 5 6 7 8 9 10 11 12 13 14 15 16 17 18 19 20 21 22 23 24 25 26 27 28 29 30 31 32 33 34 35 36 37 38 39 40 41 42 43 44 45 46 47 48 49 50
000
ASUS41 KCLE 221610
RWRCLE
OHIO REGIONAL WEATHER ROUNDUP
NATIONAL WEATHER SERVICE CLEVELAND, OH
1200 PM EDT TUE MAY 22 2018

NOTE: "FAIR" INDICATES FEW OR NO CLOUDS BELOW 12,000 FEET WITH NO
SIGNIFICANT WEATHER AND/OR OBSTRUCTIONS TO VISIBILITY.

OHZ001>008-015>018-024>027-034-035-043-044-221700-
   NORTHWEST OHIO

CITY           SKY/WX    TMP DP  RH WIND       PRES   REMARKS
DEFIANCE       PTSUNNY   72  68  87 VRB5      30.00S FOG
FINDLAY        PTSUNNY   76  67  73 SW15      30.00S
TOLEDO EXPRESS CLOUDY    70  66  87 W7        30.00S
TOLEDO EXEC    PTSUNNY   72  66  81 VRB5      30.00F HAZE
LIMA           PTSUNNY   76  68  76 SW12      30.02F
$$

OHZ009>014-019>023-028>033-038-089-221700-
   NORTHEAST OHIO

CITY           SKY/WX    TMP DP  RH WIND       PRES   REMARKS
CLE-HOPKINS    CLOUDY    75  67  76 W9        30.02S
CLE-LAKEFRONT  CLOUDY    69  64  84 W5        29.99S
CUY CO. ARPT   CLOUDY    72  68  88 NW13      30.02R
LORAIN-ELYRIA  CLOUDY    74  64  71 W10       30.01S
ASHTABULA      CLOUDY    69  66  90 SW8       30.02R
AKRON-CANTON   CLOUDY    72  65  78 SW8       30.04S
WOOSTER        PTSUNNY   74  67  78 SW12      30.04S
MANSFIELD      PTSUNNY   72  66  81 SW7       30.04S
YOUNGSTOWN     CLOUDY    70  65  84 SW8       30.03S
$$

OHZ042-051>053-060>062-070>072-077>081-221700-
  SOUTHWEST OHIO

CITY           SKY/WX    TMP DP  RH WIND       PRES   REMARKS
CINC-COVINGTON PTSUNNY   75  68  78 SW9       30.07S
CINC-LUNKEN    LGT RAIN  73  71  93 S9        30.06S
HAMILTON       PTSUNNY   78  71  79 W5        30.06S
DAYTON         FAIR      75  70  84 W7        30.06F
WRIGHT-PAT AFB PTSUNNY   75  68  78 SW8       30.05S
DAYTON GENERAL PTSUNNY   77  68  73 VRB6      30.05F
WILMINGTON     CLOUDY    74  70  87 SW9       30.06F
$$

OHZ036-037-039>041-045>050-054>059-063>069-073>076-082>088-221700-
  CENTRAL AND SOUTHEAST OHIO

CITY           SKY/WX    TMP DP  RH WIND       PRES   REMARKS
COLUMBUS       PTSUNNY   75  66  73 SW8       30.05S
OSU AIRPORT    CLOUDY    74  67  78 SW7       30.05S
BOLTON FIELD   CLOUDY    72  68  88 SW8       30.06S
RICKENBACK AFB CLOUDY    74  69  86 MISG      30.05S
NEWARK         CLOUDY    73  67  81 W10       30.05F
MARION         FAIR      76  66  71 SW12      30.04S
LANCASTER      PTSUNNY   74  68  81 SW10      30.06F
ZANESVILLE     CLOUDY    73  67  81 W6        30.06S
NEW PHILLY     NOT AVBL
$$




USA.gov is the U.S. government's official web portal to all federal, state and local government web resources and services.